Eastover, SC

11:02 AM EDT on May 25, 2017 (GMT -0400)
McEntire Angs

Weather History for KMMT - September, 2013

Change the Weather History Date:

Tuesday, September 3, 2013

  Actual Average Record
Temperature  
Mean Temperature 80 °F -  
Max Temperature 90 °F 84 °F 98 °F (2010)
Min Temperature 70 °F 66 °F 57 °F (2008)
Cooling Degree Days 15    
Growing Degree Days 30 (Base 50)    
Moisture  
Dew Point 72 °F    
Average Humidity 84    
Maximum Humidity 100    
Minimum Humidity 50    
Precipitation  
Precipitation 0.02 in - - ()
Sea Level Pressure  
Sea Level Pressure 29.90 in    
Wind  
Wind Speed 4 mph (SSW)    
Max Wind Speed 10 mph    
Max Gust Speed -    
Visibility 9 miles    
Events      
Averages and records for this station are not official NWS values.
T = Trace of Precipitation, MM = Missing Value Source: NWS Daily Summary

Daily Weather History Graph

Daily Weather History Graph

Search for Another Location

Airport or City:

Trip Planner

Search our weather history database for the weather conditions in past years. The results will help you decide how hot, cold, wet, or windy it might be!

Date:

Astronomy

Sep. 03, 2013 Rise Set
Actual Time 6:58 AM EDT 7:45 PM EDT
Civil Twilight 6:33 AM EDT 8:11 PM EDT
Nautical Twilight 6:03 AM EDT 8:41 PM EDT
Astronomical Twilight 5:32 AM EDT 9:11 PM EDT
Moon 5:13 AM EDT (9/3) 6:31 PM EDT (9/3)
Length of Visible Light 13h 38m
Length of Day
12h 47m
Waning Crescent, 3% of the Moon is Illuminated
Sep 3
Waning Crescent
Sep 5
New
Sep 12
First Quarter
Sep 19
Full
Sep 26
Last Quarter

Hourly Weather History & Observations

Time (EDT) Temp. Heat Index Dew Point Humidity Pressure Visibility Wind Dir Wind Speed Gust Speed Precip Events Conditions
12:58 AM 72.9 °F - 71.4 °F 95% 29.90 in 10.0 mi South 5.8 mph - 0.02 in   Clear
1:58 AM 72.1 °F - 70.7 °F 95% 29.89 in 10.0 mi SSW 1.2 mph - N/A   Mostly Cloudy
2:58 AM 70.7 °F - 70.7 °F 100% 29.87 in 9.0 mi Calm Calm - N/A   Clear
3:58 AM 70.0 °F - 70.0 °F 100% 29.86 in 9.0 mi SW 2.3 mph - N/A   Partly Cloudy
4:58 AM 70.7 °F - 70.7 °F 100% 29.86 in 10.0 mi South 3.5 mph - N/A   Clear
5:58 AM 70.3 °F - 70.3 °F 100% 29.87 in 9.0 mi South 2.3 mph - N/A   Clear
6:58 AM 70.5 °F - 70.5 °F 100% 29.89 in 3.0 mi South 3.5 mph - N/A   Mostly Cloudy
7:58 AM 72.0 °F - 72.0 °F 100% 29.91 in 3.0 mi SSW 4.6 mph - N/A   Mostly Cloudy
8:58 AM 75.6 °F - 72.3 °F 90% 29.91 in 6.0 mi Variable 5.8 mph - N/A   Mostly Cloudy
9:58 AM 80.6 °F 85.4 °F 73.4 °F 79% 29.91 in 10.0 mi WSW 6.9 mph - N/A   Mostly Cloudy
10:58 AM 84.2 °F 90.6 °F 73.2 °F 69% 29.90 in 10.0 mi SW 5.8 mph - 0.00 in   Clear
11:58 AM 86.5 °F 93.3 °F 72.7 °F 63% 29.91 in 10.0 mi WSW 9.2 mph - N/A   Mostly Cloudy
12:58 PM 87.3 °F 95.3 °F 73.8 °F 64% 29.91 in 10.0 mi SW 8.1 mph - N/A   Mostly Cloudy
1:58 PM - - - N/A% 29.89 in 10.0 mi Variable 4.6 mph - N/A   Mostly Cloudy
2:58 PM 90.9 °F 96.2 °F 69.6 °F 50% 29.87 in 10.0 mi WNW 8.1 mph - N/A   Scattered Clouds
3:58 PM 89.1 °F 93.7 °F 69.4 °F 52% 29.86 in 10.0 mi South 10.4 mph - N/A   Scattered Clouds
4:58 PM 82.0 °F 86.5 °F 71.4 °F 70% 29.86 in 10.0 mi SW 5.8 mph - N/A   Mostly Cloudy
5:58 PM 86.0 °F 91.5 °F 71.2 °F 61% 29.86 in 10.0 mi SSW 6.9 mph - N/A   Mostly Cloudy
6:58 PM 84.6 °F 91.4 °F 73.2 °F 69% 29.87 in 10.0 mi SSW 3.5 mph - N/A   Scattered Clouds
7:58 PM 79.3 °F - 73.8 °F 83% 29.91 in 10.0 mi Variable 2.3 mph - N/A   Partly Cloudy
8:58 PM 76.5 °F - 74.3 °F 93% 29.92 in 10.0 mi Calm Calm - N/A   Partly Cloudy
9:58 PM 74.3 °F - 74.3 °F 100% 29.95 in 10.0 mi ESE 1.2 mph - N/A   Clear
10:58 PM 75.6 °F - 73.6 °F 94% 29.96 in 10.0 mi SSW 4.6 mph - N/A   Clear
11:58 PM 73.0 °F - 72.5 °F 98% 29.97 in 10.0 mi Calm Calm - N/A   Clear